Wink, TX

8:41 AM CST on December 04, 2016 (GMT -0600)
Winkler County

Weather History for KINK - September, 2014

Change the Weather History Date:

Wednesday, September 24, 2014

  Actual Average Record
Temperature  
Mean Temperature 78 °F -  
Max Temperature 86 °F 84 °F 100 °F (1953)
Min Temperature 69 °F 58 °F 42 °F (1989)
Cooling Degree Days 12    
Growing Degree Days 28 (Base 50)    
Moisture  
Dew Point 62 °F    
Average Humidity 64    
Maximum Humidity 84    
Minimum Humidity 43    
Precipitation  
Precipitation 0.00 in - - ()
Sea Level Pressure  
Sea Level Pressure 29.99 in    
Wind  
Wind Speed 10 mph (SE)    
Max Wind Speed 22 mph    
Max Gust Speed 28 mph    
Visibility 10 miles    
Events      
Averages and records for this station are not official NWS values.
T = Trace of Precipitation, MM = Missing Value Source: NWS Daily Summary

Daily Weather History Graph

Daily Weather History Graph

Search for Another Location

Airport or City:

Trip Planner

Search our weather history database for the weather conditions in past years. The results will help you decide how hot, cold, wet, or windy it might be!

Date:

Astronomy

Sep. 24, 2014 Rise Set
Actual Time 7:42 AM CDT 7:46 PM CDT
Civil Twilight 7:17 AM CDT 8:11 PM CDT
Nautical Twilight 6:49 AM CDT 8:39 PM CDT
Astronomical Twilight 6:21 AM CDT 9:07 PM CDT
Moon 8:02 AM CDT (9/24) 8:03 PM CDT (9/24)
Length of Visible Light 12h 53m
Length of Day
12h 04m
New Moon, 0% of the Moon is Illuminated
Sep 24
New Moon
Oct 1
First Quarter
Oct 8
Full
Oct 15
Last Quarter
Oct 23
New

Hourly Weather History & Observations

Time (CDT) Temp. Heat Index Dew Point Humidity Pressure Visibility Wind Dir Wind Speed Gust Speed Precip Events Conditions
12:53 AM 72.0 °F - 63.0 °F 73% 29.97 in 10.0 mi SE 8.1 mph - N/A   Clear
1:53 AM 71.1 °F - 62.1 °F 73% 29.97 in 10.0 mi SE 6.9 mph - N/A   Clear
2:53 AM 70.0 °F - 63.0 °F 78% 29.97 in 10.0 mi SE 6.9 mph - N/A   Clear
3:53 AM 70.0 °F - 62.1 °F 76% 29.96 in 10.0 mi ESE 6.9 mph - N/A   Clear
4:53 AM 71.1 °F - 63.0 °F 75% 29.95 in 10.0 mi SE 11.5 mph - N/A   Mostly Cloudy
5:53 AM 71.1 °F - 63.0 °F 75% 29.96 in 10.0 mi SE 11.5 mph - 0.00 in   Overcast
6:53 AM 70.0 °F - 64.0 °F 81% 29.97 in 10.0 mi SE 10.4 mph - 0.00 in   Partly Cloudy
7:53 AM 69.1 °F - 64.0 °F 84% 29.99 in 10.0 mi ESE 10.4 mph - N/A   Clear
8:53 AM 71.1 °F - 64.9 °F 81% 30.00 in 10.0 mi SE 9.2 mph - N/A   Clear
9:53 AM 73.0 °F - 64.9 °F 76% 30.02 in 10.0 mi SE 13.8 mph - N/A   Clear
10:53 AM 75.0 °F - 64.0 °F 69% 30.03 in 10.0 mi SE 15.0 mph - N/A   Clear
11:53 AM 75.9 °F - 63.0 °F 64% 30.04 in 10.0 mi ESE 11.5 mph - N/A   Clear
12:53 PM 80.1 °F 81.5 °F 63.0 °F 56% 30.03 in 10.0 mi SE 15.0 mph 21.9 mph N/A   Clear
1:53 PM 82.0 °F 83.0 °F 62.1 °F 51% 30.01 in 10.0 mi SE 10.4 mph - N/A   Clear
2:53 PM 84.9 °F 85.4 °F 62.1 °F 46% 29.99 in 10.0 mi SSE 11.5 mph 19.6 mph N/A   Clear
3:53 PM 84.9 °F 85.0 °F 61.0 °F 44% 29.96 in 10.0 mi SE 16.1 mph - N/A   Mostly Cloudy
4:53 PM 86.0 °F 86.1 °F 61.0 °F 43% 29.94 in 10.0 mi SSE 12.7 mph - N/A   Clear
5:53 PM 84.0 °F 84.0 °F 60.1 °F 44% 29.94 in 10.0 mi SSE 12.7 mph - N/A   Partly Cloudy
6:53 PM 82.9 °F 82.8 °F 59.0 °F 44% 29.94 in 10.0 mi SE 16.1 mph 21.9 mph N/A   Clear
7:53 PM 80.1 °F 80.9 °F 60.1 °F 50% 29.96 in 10.0 mi SE 11.5 mph - N/A   Clear
8:53 PM 78.1 °F - 60.1 °F 54% 29.98 in 10.0 mi SE 9.2 mph - N/A   Clear
9:53 PM 75.9 °F - 61.0 °F 60% 30.01 in 10.0 mi ESE 9.2 mph - N/A   Partly Cloudy
10:53 PM 70.0 °F - 59.0 °F 68% 30.07 in 10.0 mi NNE 21.9 mph 27.6 mph N/A   Overcast
11:53 PM 69.1 °F - 60.1 °F 73% 30.08 in 10.0 mi NE 13.8 mph 23.0 mph N/A   Overcast